TimeCST,TemperatureF,Dew PointF,Humidity,Sea Level PressureIn,VisibilityMPH,Wind Direction,Wind SpeedMPH,Gust SpeedMPH,PrecipitationIn,Events,Conditions,WindDirDegrees,DateUTC
12:53 AM,39.0,35.1,86,30.19,10.0,Calm,Calm,-,N/A,,Clear,0,2012-11-08 06:53:00
1:53 AM,37.0,35.1,93,30.20,10.0,NNE,3.5,-,N/A,,Clear,30,2012-11-08 07:53:00
2:53 AM,32.0,30.9,96,30.21,10.0,Calm,Calm,-,N/A,,Clear,0,2012-11-08 08:53:00
3:53 AM,32.0,30.9,96,30.22,10.0,Calm,Calm,-,N/A,,Clear,0,2012-11-08 09:53:00
4:53 AM,32.0,30.9,96,30.24,10.0,Calm,Calm,-,N/A,,Clear,0,2012-11-08 10:53:00
5:53 AM,30.9,30.0,96,30.25,10.0,NNE,3.5,-,N/A,,Clear,30,2012-11-08 11:53:00
6:53 AM,30.9,30.0,96,30.27,10.0,Calm,Calm,-,N/A,,Clear,0,2012-11-08 12:53:00
7:53 AM,39.9,36.0,86,30.30,10.0,Calm,Calm,-,N/A,,Clear,0,2012-11-08 13:53:00
8:53 AM,46.9,39.9,77,30.29,10.0,East,3.5,-,N/A,,Clear,80,2012-11-08 14:53:00
9:53 AM,53.1,37.0,55,30.30,10.0,ESE,3.5,-,N/A,,Clear,110,2012-11-08 15:53:00
10:53 AM,55.9,36.0,47,30.27,10.0,Calm,Calm,-,N/A,,Clear,0,2012-11-08 16:53:00
11:53 AM,57.9,36.0,44,30.25,10.0,Calm,Calm,-,N/A,,Clear,0,2012-11-08 17:53:00
12:53 PM,62.1,36.0,38,30.22,10.0,Calm,Calm,-,N/A,,Clear,0,2012-11-08 18:53:00
1:53 PM,61.0,35.1,38,30.19,10.0,SW,4.6,-,N/A,,Clear,230,2012-11-08 19:53:00
2:53 PM,62.1,36.0,38,30.18,10.0,Calm,Calm,-,N/A,,Clear,0,2012-11-08 20:53:00
3:53 PM,62.1,35.1,37,30.18,10.0,Calm,Calm,-,N/A,,Clear,0,2012-11-08 21:53:00
4:53 PM,55.0,39.9,57,30.18,10.0,Calm,Calm,-,N/A,,Clear,0,2012-11-08 22:53:00
5:53 PM,48.9,42.1,77,30.19,10.0,Calm,Calm,-,N/A,,Clear,0,2012-11-08 23:53:00
6:53 PM,44.1,41.0,89,30.20,10.0,Calm,Calm,-,N/A,,Clear,0,2012-11-09 00:53:00
7:53 PM,44.1,41.0,89,30.20,10.0,Calm,Calm,-,N/A,,Clear,0,2012-11-09 01:53:00
8:53 PM,41.0,39.0,93,30.19,10.0,ENE,4.6,-,N/A,,Clear,60,2012-11-09 02:53:00
9:53 PM,42.1,39.0,89,30.19,10.0,Calm,Calm,-,N/A,,Clear,0,2012-11-09 03:53:00
10:53 PM,41.0,37.9,89,30.18,10.0,Calm,Calm,-,N/A,,Clear,0,2012-11-09 04:53:00
11:53 PM,41.0,37.9,89,30.19,10.0,Calm,Calm,-,N/A,,Clear,0,2012-11-09 05:53:00